Tracking 28790 objects as of 19-Apr-2024
HD Live streaming from Space Station
objects crossing your sky now

DELTA 1 DEB

Track DELTA 1 DEB now!
10-day predictions


NORAD ID: 26841
Int'l Code: 1975-052KV
Perigee: 921.5 km
Apogee: 1,719.9 km
Inclination: 99.9 °
Period: 111.9 minutes
Semi major axis: 7691 km
RCS: 0.0089 m2 (small)
Launch date: June 12, 1975
Source: United States (US)
Launch site: AIR FORCE WESTERN TEST RANGE (AFWTR)

Note: This is SATELLITE DEBRIS
Your satellite tracking list
Your tracking list is empty




NASA's NSSDC Master Catalog

Two Line Element Set (TLE):
1 26841U 75052KV  24108.34559236  .00002075  00000-0  46724-2 0  9991
2 26841  99.8996 153.1615 0518980 131.1258 294.5440 12.86980306496243
Source of the keplerian elements: AFSPC